Terug naar catalogus

COSMOS 252 DEB

ActiefLEO
NORAD 19479·DEBRIS·🇷🇺 Russia

Gelanceerd Nov 1, 1968 vanaf Baikonur Cosmodrome

Loading…

Volgende Passages (komende 24 uur)

TLE

VersSource: Space-Track

Epoch: Sep 13, 2026, 12:39 UTC

1 19479U 68097ET  26256.52735416  .00003736  00000-0  64108-3 0  9995
2 19479  62.7899 193.7796 0576637  90.0026 276.7064 13.97519744904719

Volg COSMOS 252 DEB in realtime met AllMySat

Download on the App Store